Showing default

PROTOMETHEE, 58321

Orbit data source: Space-Track

PROTOMETHEE, 58321 is a payload satellite owned by Promethee (FR) in SSO that was launched on Sat, 11 Nov 2023 UTC via an FALCON 9 launch vehicle from the Air Force Western Test Range (AFWTR). Payload-class satellites include a variety of spacecraft equipped with specific instruments for various scientific and technological missions. These include communications satellites like Starlink; space stations such as the ISS; scientific satellites like the Hubble; Earth observation satellites from companies like Planet Labs, Umbra, and HawkEye 360; GPS; miniature CubeSats for education and research; and military/defense satellites.

Loading next visibility...
Identifier
58321, 2023-174BT
Orbit
SSO
Country
Flag of FRFR
Related business
Manufacturer
NanoAvionics
Mission
Operational Commercial Imaging
Bus & Motor
CUBESAT 16U, Unknown motor
Mass
30 kg wet, ~30 kg dry
Launch date (UTC)
2023-11-11 (2 years ago)
Launch vehicle
FALCON 9
Launch site
Air Force Western Test Range (AFWTR)
Object type
Payload
Rocket body
Debris
Shape & HBR
Box + 2 Pan, 0.2 m
Radar Cross Section
0.100 m², Medium (>0.1 m² and < 1m²)

Expand to show TLE details & history
Last TLE update: 4 hours ago

TLE from 4 hours ago
0 PROTOMETHEE
1 58321U 23174BT  25288.96033763  .00009838  00000-0  36746-3 0  9995
2 58321  97.4027   3.8374 0007215 320.1851  39.8858 15.27553043107633
Epoch: 2025-10-15T23:02Z
TLE epoch observation values (Epoch: 2025-10-15T23:02:53.171Z)
Latitude
-0.00002°
Longitude
-6.61106°
Altitude
482.433 km
Speed
7.626 km/s
True Right ascension
00h 15m 20s
True Declination
0° 00' 00"
Sunlit
Object was in full shadow at epoch
Visualization orbit readout
Latitude
Unknown
Longitude
Unknown
Altitude
Unknown
Speed
Unknown
Apparent Right ascension
Unknown
Apparent Declination
Unknown
Sunlit
N/A
Visualization observer readout
Local Sidereal Time
22:02:37
Azimuth
Unknown
Elevation
Unknown
Doppler factor
Unknown
Orbital elements
Apogee altitude
485.034 km
Perigee altitude
475.137 km
Semi-major axis
6,858.222 km
Eccentricity
0.00072
Inclination
97.4027°
RAAN
3.8374°
Arg. of periapsis
320.1851°
True anomaly
39.93885°
Mean anomaly
39.8858°
Eccentric anomaly
39.91232°
Mean motion
3.82143 °/min
Orbital period
94.21 mins
BSTAR
0.00036746
Loading maneuver chart data...
Computing Atmospheric mass density...

Documentation

Showing up to 5 results
|